Location: Clegg Observatory
(38.9178°N, 78.6069°W)
Time: 07:07:16
(UTC-04:00)

Daily predictions for brighter satellites

Satellite Brightness Start Highest point End
(mag) Time Altitude Azimuth Time Altitude Azimuth Time Altitude Azimuth
Resurs 1-3 4.0 20:56:09 10° S 21:00:31 69° WSW 21:04:54 10° NNW
Cosmos 1697 Rocket 4.4 20:57:48 10° N 21:01:34 18° NE 21:05:19 10° E
Cosmos 2074 Rocket 4.1 20:56:45 10° N 21:03:03 84° E 21:09:21 10° S
Aureole 1 Rocket 3.6 21:01:35 10° SW 21:04:36 42° WNW 21:07:27 10° N
Helios 1A 3.2 21:02:47 10° SSE 21:06:54 58° ENE 21:11:02 10° N
Cosmos 1666 2.8 21:05:56 10° N 21:09:41 78° W 21:13:25 10° S
Cosmos 2184 Rocket 4.1 21:04:38 10° N 21:10:59 88° W 21:17:15 10° S
CZ-4B DEB 3.2 21:08:51 10° SE 21:11:39 39° ENE 21:14:29 10° N
Cosmos 2369 4.4 21:07:29 10° N 21:12:54 41° ENE 21:18:15 10° SE
Spot 2 Rocket 4.3 21:08:41 10° S 21:13:35 53° W 21:18:31 10° NNW
Helios 1B rocket 2.4 21:10:33 10° NNE 21:14:40 68° ESE 21:18:47 10° S
Cosmos 1833 Rocket 3.4 21:10:12 10° SSE 21:15:05 31° ESE 21:19:59 10° NE
Meteor 2-9 Rocket 4.2 21:12:09 10° N 21:17:44 87° ENE 21:23:27 10° S
NOSS 8 (F) 4.4 21:14:18 10° SSW 21:17:51 79° ESE 21:21:23 10° NE
Cosmos 1624 Rocket 4.1 21:14:42 10° NNW 21:20:00 69° ENE 21:25:17 10° SSE
Cosmos 921 Rocket 3.7 21:16:51 10° N 21:21:03 40° ENE 21:24:51 12° SE
Cosmos 2228 4.4 21:19:14 10° NNE 21:22:34 22° ENE 21:25:24 12° ESE
Meteor 1-15 Rocket 4.3 21:17:07 10° N 21:22:40 64° E 21:28:10 10° SSE
Resurs 01 Rocket 3.3 21:20:13 10° SSW 21:24:11 32° W 21:28:10 10° NNW
SJ-11-01 4.3 21:23:59 10° SSE 21:28:40 88° E 21:33:24 10° NNW
SPOT 5 4.2 21:25:57 11° ESE 21:28:51 20° ENE 21:32:01 10° NNE
H-2A R/B 4.3 13:50:55 10° SW 21:28:54 46° SW 21:35:40 13° SE
Okean 2 3.3 21:25:06 10° S 21:29:09 76° E 21:33:15 10° N
Nadezhda 1 Rocket 4.3 21:23:47 10° S 21:30:09 77° W 21:36:35 10° N
Envisat 3.4 21:31:04 10° S 21:36:05 65° WSW 21:41:10 10° NNW
H-2A R/B 3.6 21:35:35 11° ESE 21:38:39 19° ENE 21:42:10 10° NNE
Cosmos 2056 Rocket 3.5 21:34:52 10° NNW 21:40:02 84° WSW 21:44:53 11° SSE
OAO 2 Rocket 4.2 21:36:35 10° W 21:41:00 34° SSW 21:44:10 17° SE
Cosmos 1515 3.6 21:38:06 10° S 21:41:52 67° E 21:45:39 10° NNE
ISS -0.6 21:42:36 10° NW 21:44:01 12° NNW 21:45:26 10° N
ARGOS 3.9 21:43:11 16° SE 21:46:57 38° ENE 21:51:56 10° N
Cosmos 839 Rocket 4.4 21:41:08 10° NNW 21:47:51 84° ENE 21:54:43 16° SSE
CRYOSAT 2 4.4 21:43:30 10° S 21:48:20 85° W 21:53:13 10° N
GPS 2-04 Rocket1 3.9 21:46:37 10° SSW 21:48:46 18° SSE 21:48:46 18° SSE
Cosmos 1437 Rocket 3.0 21:45:56 10° NNW 21:49:47 67° W 21:53:29 11° S
Cosmos 1892 Rocket 3.5 21:46:14 10° S 21:50:40 80° E 21:55:04 10° N
Cosmos 1980 Rocket 3.5 21:47:15 10° N 21:51:57 26° ENE 21:55:24 15° ESE
Cosmos 2154 Rocket 4.3 21:49:25 10° N 21:55:46 74° W 22:02:04 10° S
Intercosmos 24 4.4 21:52:58 10° NNW 21:56:27 52° W 22:00:05 10° S
Cosmos 1025 Rocket 4.5 21:53:21 10° SSW 21:57:19 37° WNW 22:01:18 10° N
MetOp-B 4.3 21:54:11 18° SSE 21:58:03 60° ENE 22:03:20 10° N
Hubble Space Telescope 2.3 21:55:52 10° SW 21:58:44 18° S 21:58:52 18° S
Cosmos 1606 Rocket 3.9 21:57:08 10° NNW 22:01:25 65° W 22:05:11 13° S
CZ-3A R/B 1.8 21:58:27 10° WSW 22:02:15 38° NW 22:03:55 10° NNE
Cosmos 1939 Rocket 4.4 22:00:01 10° SSW 22:03:30 31° W 22:06:59 10° NNW
Cosmos 2322 Rocket 4.4 22:02:00 10° NNE 22:04:38 13° NE 22:07:15 10° ENE
ERS-1 Rocket 3.0 22:01:26 16° S 22:05:25 83° WSW 22:10:29 10° NNW
Meteor 1-4 Rocket 3.1 22:03:28 10° N 22:06:50 40° ENE 22:07:49 32° ESE
Cosmos 1726 Rocket 3.9 22:05:14 10° NNW 22:09:31 63° W 22:12:50 16° S
YAOGAN 6 3.7 22:07:41 13° SSW 22:10:28 38° W 22:13:47 10° NNW
NOAA 11 4.1 22:06:32 19° SSE 22:10:30 87° ENE 22:15:58 10° NNW
Cosmos 1452 Rocket 3.5 22:06:22 10° NNW 22:11:40 76° ENE 22:14:43 26° SSE
COSMOS 2487 4.0 22:08:23 10° SW 22:11:42 37° WNW 22:15:03 10° N
ASTEX 1 4.3 22:07:06 10° SSW 22:11:47 45° W 22:16:29 10° NNW
Tiangong 2 1.7 22:12:55 10° WNW 22:16:02 51° NNE 22:17:23 28° ENE
Nimbus 7 Rocket 4.5 22:18:34 10° NNE 22:24:37 64° ESE 22:28:50 20° S
Cosmos 1766 4.0 22:21:32 10° NNE 22:25:08 34° ENE 22:25:39 33° E
Cosmos 1953 4.4 22:25:03 10° NE 22:27:22 15° ENE 22:27:32 15° ENE
USA 229 DEB 4.1 22:21:54 10° NNW 22:28:57 58° NE 22:33:04 27° ESE
USA 245 2.8 22:29:30 49° NNW 22:29:30 49° NNW 22:31:15 10° NNW
USA 229 4.1 22:22:00 10° NNW 22:29:03 58° NE 22:33:10 27° ESE
Landsat 7 4.5 22:27:34 31° ESE 22:29:07 40° ENE 22:33:34 10° N
Cosmos 2082 Rocket 2.9 22:24:40 10° SW 22:30:13 55° WNW 22:35:47 10° NNE
SPOT 1/Viking Rocket 3.6 22:27:59 32° SE 22:30:18 65° ENE 22:35:24 10° N
Cosmos 158 Rocket 4.0 22:31:05 23° S 22:34:26 71° ESE 22:39:49 10° NNE
Cosmos 2058 Rocket 4.0 22:30:33 10° NNW 22:34:48 45° W 22:37:34 20° SSW
Cosmos 1656 4.1 22:30:45 10° NNW 22:36:06 56° WSW 22:39:02 26° S
SL-08 R/B 4.4 22:31:21 10° N 22:37:30 78° E 22:40:35 31° SSE
Timation 2 Rocket 4.0 22:32:49 10° SSW 22:39:13 83° WNW 22:45:24 10° NNE
Cosmos 2218 Rocket 3.9 22:33:43 10° N 22:39:55 88° W 22:43:21 29° S
SL-24 R/B - RUBIN 2 4.5 22:34:24 10° SSW 22:41:06 82° ESE 22:47:40 10° NNE
SL-08 RB Rocket 3.7 22:42:05 39° S 22:43:41 76° WSW 22:48:11 10° NNW
Terra 2.5 22:43:04 35° ESE 22:44:09 40° ENE 22:48:35 10° N
Cosmos 1697 Rocket 2.8 22:40:28 10° NNW 22:46:03 68° WSW 22:48:28 34° S
H-2A R/B 2.9 22:45:17 35° E 22:46:05 38° ENE 22:50:16 10° N
Lacrosse 5 rocket 3.5 22:43:38 10° NNW 22:47:20 23° NNE 22:49:48 15° ENE
Meteor 2-21 4.4 22:43:43 10° N 22:49:46 81° W 22:52:45 32° S
Cosmos 1812 Rocket 3.5 22:46:00 10° N 22:50:29 74° E 22:51:20 56° SSE
Cosmos 1805 4.0 22:47:05 10° N 22:50:34 36° ENE 22:50:34 36° ENE
CZ-4B R/B 4.4 22:49:12 10° NE 22:53:41 31° E 22:53:41 31° E
Meteor 2-21 Rocket 4.3 22:49:21 10° N 22:55:26 90° WSW 22:57:57 38° S
Cosmos 1626 Rocket 4.1 22:54:10 28° SW 22:56:11 53° W 23:00:26 10° N
Cosmos 1833 Rocket 4.3 22:53:49 10° SW 22:58:53 34° WNW 23:04:01 10° N
Iridium 2 4.0 22:55:15 10° N 22:58:41 53° ENE 22:58:41 53° ENE
SL-16 R/B 3.3 22:54:48 10° N 22:59:53 33° ENE 23:01:37 27° E
Meteor 1-22 Rocket 4.3 22:56:41 10° NNW 23:02:00 67° W 23:04:07 37° SSW
Nadezhda 3 Rocket 4.0 23:00:38 41° SSE 23:02:49 64° E 23:09:05 10° NNE
Cosmos 2360 4.1 22:57:06 10° NNW 23:02:51 81° ENE 23:04:28 49° SSE
Cosmos 1544 3.4 23:00:02 10° N 23:03:12 56° NE 23:03:12 56° NE
SPOT 5 3.9 23:05:12 26° SW 23:06:41 33° W 23:10:41 10° NNW
Cosmos 1825 Rocket 3.5 23:10:25 63° E 23:10:25 63° E 23:14:34 10° NNE
Cosmos 1953 Rocket 4.1 23:11:52 44° ENE 23:11:52 44° ENE 23:15:43 10° NNE
Cosmos 1758 3.7 23:08:22 10° N 23:11:51 50° NE 23:11:51 50° NE
Cosmos 1821 Rocket 4.3 23:10:13 10° N 23:16:22 51° E 23:17:49 43° ESE
Cosmos 1271 Rocket 2.9 23:12:43 10° NNW 23:16:35 67° W 23:16:35 67° W
Spot 4 4.3 23:16:19 43° E 23:16:42 44° ENE 23:21:16 10° N
H-2A R/B 2.6 23:16:12 37° SW 23:17:39 48° W 23:22:34 10° NNW
Cosmos 1842 3.6 23:18:35 57° W 23:18:47 58° W 23:22:40 10° N
Lacrosse 5 1.7 23:18:42 50° SSW 23:20:03 84° SE 23:25:09 10° NE
Cosmos-2242 4.3 23:23:12 10° NNE 23:26:24 29° ENE 23:26:24 29° ENE
Cosmos 2360 Rocket 3.6 23:30:10 10° N 23:34:51 26° ENE 23:36:19 23° E
Cosmos 1980 Rocket 2.9 23:30:48 10° NW 23:36:05 43° WSW 23:37:10 38° SW
Meteor 2-8 Rocket 4.4 23:34:39 48° SSW 23:36:29 78° W 23:42:40 10° N
CZ-4C R/B 4.4 23:38:56 36° NNE 23:38:56 36° NNE 23:41:25 10° N
Cosmos 1331 Rocket 3.8 23:34:28 10° NNW 23:39:40 80° ENE 23:39:53 78° ESE
USA 267 4.2 23:36:23 10° ENE 23:40:26 29° E 23:40:26 29° E
Cosmos 1535 Rocket 4.3 23:38:51 10° N 23:45:00 81° E 23:45:57 65° SSE
Cosmos 1110 Rocket 3.8 23:40:19 10° NNW 23:45:34 79° WSW 23:45:47 77° SW
IGS 5A 4.4 23:46:56 41° W 23:46:56 41° W 23:50:35 10° NNW
ATLAS CENTAUR R/B 2.3 23:44:03 10° NNW 23:46:29 39° NNW 23:46:29 39° NNW
Cosmos 2322 Rocket 2.0 23:43:49 10° NNW 23:49:34 83° ENE 23:50:04 74° SE
Cosmos 1302 Rocket 4.2 23:45:23 10° N 23:50:35 57° ENE 23:50:45 56° ENE
Cosmos 389 Rocket 4.3 23:51:04 10° NNW 23:53:06 29° NW 23:53:06 29° NW
